This is the latest recevied weather packets stored in our database for station/object KC0RPY. If no packets are shown the sender has not sent any weather packets the latest 10 day(s).
| Time | Temp. | Humidity | Pressure | Rain* | Wind** | Luminosity | Snow |
|---|---|---|---|---|---|---|---|
| 1777516355 | 11.11° C | 73% | 1019.5 hPa | 0 mm | - | 0 W/m² | - |
| 1777516051 | 11.11° C | 71% | 1019.8 hPa | 0 mm | - | 0 W/m² | - |
| 1777515748 | 11.67° C | 72% | 1019.5 hPa | 0 mm | - | 0 W/m² | - |
| 1777515445 | 12.22° C | 70% | 1019.5 hPa | 0 mm | - | 0 W/m² | - |
| 1777515142 | 12.22° C | 68% | 1019.8 hPa | 0 mm | - | 0 W/m² | - |
| 1777514838 | 12.22° C | 67% | 1019.5 hPa | 0 mm | - | 0 W/m² | - |
| 1777514535 | 12.22° C | 67% | 1019.5 hPa | 0 mm | - | 0 W/m² | - |
| 1777514233 | 12.22° C | 68% | 1019.5 hPa | 0 mm | - | 0 W/m² | - |
| 1777513928 | 12.78° C | 67% | 1019.5 hPa | 0 mm | - | 0 W/m² | - |
| 1777513626 | 12.78° C | 65% | 1019.1 hPa | 0 mm | - | 0 W/m² | - |
| 1777513323 | 12.78° C | 64% | 1019.1 hPa | 0 mm | - | 0 W/m² | - |
| 1777513018 | 12.78° C | 65% | 1019.1 hPa | 0 mm | - | 0 W/m² | - |
| 1777512715 | 12.78° C | 65% | 1019.1 hPa | 0 mm | - | 0 W/m² | - |
| 1777512412 | 12.78° C | 65% | 1019.1 hPa | 0 mm | - | 0 W/m² | - |
| 1777512109 | 13.33° C | 64% | 1019.1 hPa | 0 mm | - | 0 W/m² | - |
| 1777511807 | 13.33° C | 63% | 1018.8 hPa | 0 mm | - | 0 W/m² | - |
| 1777511503 | 13.89° C | 62% | 1019.1 hPa | 0 mm | - | 2 W/m² | - |
| 1777511200 | 13.89° C | 62% | 1019.1 hPa | 0 mm | - | 5 W/m² | - |
| 1777510896 | 13.89° C | 62% | 1019.1 hPa | 0 mm | - | 8 W/m² | - |
| 1777510593 | 13.89° C | 63% | 1018.8 hPa | 0 mm | - | 12 W/m² | - |
| 1777510289 | 13.89° C | 63% | 1019.1 hPa | 0 mm | - | 17 W/m² | - |
| 1777509986 | 13.89° C | 62% | 1018.8 hPa | 0 mm | - | 23 W/m² | - |
| 1777509682 | 13.89° C | 62% | 1018.8 hPa | 0 mm | - | 26 W/m² | - |
| 1777509379 | 13.89° C | 62% | 1018.8 hPa | 0 mm | - | 32 W/m² | - |
| 1777509076 | 13.89° C | 62% | 1018.8 hPa | 0 mm | - | 34 W/m² | - |
* Rain latest hour (hover to see other rain measurements)
** Current wind speed in m/s (hover to see current wind gust speed)